TimeCDT,TemperatureF,Dew PointF,Humidity,Sea Level PressureIn,VisibilityMPH,Wind Direction,Wind SpeedMPH,Gust SpeedMPH,PrecipitationIn,Events,Conditions,WindDirDegrees,DateUTC
12:15 AM,72.1,70.9,96,29.79,7.0,Calm,Calm,-,N/A,,Clear,0,2013-06-27 05:15:00
12:35 AM,71.6,70.5,96,29.80,7.0,Calm,Calm,-,N/A,,Clear,0,2013-06-27 05:35:00
12:55 AM,71.4,70.2,96,29.80,5.0,Calm,Calm,-,N/A,,Clear,0,2013-06-27 05:55:00
1:15 AM,71.8,70.5,96,29.80,5.0,Calm,Calm,-,N/A,,Clear,0,2013-06-27 06:15:00
1:35 AM,71.6,70.5,96,29.80,2.5,Calm,Calm,-,N/A,,Clear,0,2013-06-27 06:35:00
1:55 AM,70.7,69.4,96,29.80,2.0,Calm,Calm,-,N/A,,Clear,0,2013-06-27 06:55:00
2:15 AM,70.7,69.8,97,29.81,5.0,Calm,Calm,-,N/A,,Clear,0,2013-06-27 07:15:00
2:35 AM,70.2,69.1,96,29.81,4.0,Calm,Calm,-,N/A,,Scattered Clouds,0,2013-06-27 07:35:00
2:55 AM,70.9,69.6,96,29.81,2.0,SW,3.5,-,N/A,,Overcast,220,2013-06-27 07:55:00
3:15 AM,72.0,70.9,96,29.80,0.2,Calm,Calm,-,N/A,Fog,Fog,0,2013-06-27 08:15:00
3:35 AM,72.0,70.9,96,29.81,0.2,Calm,Calm,-,N/A,Fog,Fog,0,2013-06-27 08:35:00
3:55 AM,71.8,70.7,96,29.81,0.2,Calm,Calm,-,N/A,Fog,Fog,0,2013-06-27 08:55:00
4:15 AM,72.0,70.9,96,29.81,0.2,Calm,Calm,-,N/A,Fog,Fog,0,2013-06-27 09:15:00
4:35 AM,71.8,70.7,96,29.81,0.2,Calm,Calm,-,N/A,Fog,Fog,0,2013-06-27 09:35:00
4:55 AM,72.1,71.1,96,29.81,0.2,Calm,Calm,-,N/A,Fog,Fog,0,2013-06-27 09:55:00
5:15 AM,71.6,70.3,96,29.81,2.0,West,3.5,-,N/A,,Mostly Cloudy,270,2013-06-27 10:15:00
5:35 AM,71.2,70.2,96,29.81,1.2,West,4.6,-,N/A,,Mist,270,2013-06-27 10:35:00
5:55 AM,73.0,72.0,96,29.81,2.5,West,4.6,-,N/A,,Clear,270,2013-06-27 10:55:00
6:15 AM,73.4,72.3,96,29.82,3.0,West,4.6,-,N/A,,Clear,280,2013-06-27 11:15:00
6:35 AM,74.3,73.0,96,29.81,4.0,WNW,4.6,-,N/A,,Clear,300,2013-06-27 11:35:00
6:55 AM,74.8,73.8,96,29.82,3.0,WNW,5.8,-,N/A,,Clear,300,2013-06-27 11:55:00
7:15 AM,76.1,75.0,96,29.82,5.0,WNW,5.8,-,N/A,,Clear,300,2013-06-27 12:15:00
7:35 AM,77.2,75.6,95,29.82,7.0,WNW,8.1,-,N/A,,Clear,300,2013-06-27 12:35:00
7:55 AM,78.6,75.6,90,29.83,7.0,WNW,8.1,-,N/A,,Scattered Clouds,290,2013-06-27 12:55:00
8:15 AM,79.9,75.6,87,29.83,7.0,WNW,6.9,-,N/A,,Scattered Clouds,290,2013-06-27 13:15:00
8:35 AM,80.6,75.4,84,29.83,10.0,WNW,8.1,-,N/A,,Scattered Clouds,290,2013-06-27 13:35:00
8:55 AM,81.5,74.7,80,29.83,10.0,WNW,8.1,-,N/A,,Scattered Clouds,290,2013-06-27 13:55:00
9:15 AM,82.8,74.1,75,29.83,7.0,WNW,10.4,-,N/A,,Clear,290,2013-06-27 14:15:00
9:35 AM,83.1,72.9,71,29.84,7.0,WNW,10.4,-,N/A,,Clear,300,2013-06-27 14:35:00
9:55 AM,84.2,72.5,68,29.84,10.0,WNW,12.7,-,N/A,,Scattered Clouds,290,2013-06-27 14:55:00
10:15 AM,83.8,72.9,69,29.84,7.0,WNW,12.7,-,N/A,,Scattered Clouds,290,2013-06-27 15:15:00
10:35 AM,83.7,71.6,67,29.84,10.0,WNW,15.0,20.7,N/A,,Mostly Cloudy,300,2013-06-27 15:35:00
10:55 AM,84.9,72.5,66,29.84,10.0,NW,12.7,-,N/A,,Scattered Clouds,310,2013-06-27 15:55:00
11:15 AM,85.5,72.3,65,29.84,7.0,NW,17.3,-,N/A,,Scattered Clouds,310,2013-06-27 16:15:00
11:35 AM,86.0,73.0,65,29.85,10.0,NW,12.7,-,N/A,,Scattered Clouds,310,2013-06-27 16:35:00
11:55 AM,86.2,71.2,61,29.85,10.0,NW,17.3,-,N/A,,Scattered Clouds,320,2013-06-27 16:55:00
12:15 PM,86.4,71.6,61,29.86,10.0,NW,16.1,21.9,N/A,,Scattered Clouds,310,2013-06-27 17:15:00
12:35 PM,86.9,71.1,59,29.85,10.0,NW,15.0,23.0,N/A,,Scattered Clouds,310,2013-06-27 17:35:00
12:55 PM,87.8,70.7,57,29.86,10.0,NW,12.7,17.3,N/A,,Scattered Clouds,310,2013-06-27 17:55:00
1:15 PM,88.0,71.8,59,29.86,10.0,NW,15.0,-,N/A,,Scattered Clouds,310,2013-06-27 18:15:00
1:35 PM,88.7,69.1,52,29.86,10.0,NW,12.7,18.4,N/A,,Clear,310,2013-06-27 18:35:00
1:55 PM,89.1,67.5,49,29.86,10.0,WNW,17.3,20.7,N/A,,Clear,300,2013-06-27 18:55:00
2:15 PM,89.6,68.5,50,29.86,7.0,WNW,12.7,-,N/A,,Clear,290,2013-06-27 19:15:00
2:35 PM,89.6,66.7,47,29.86,10.0,NNW,12.7,20.7,N/A,,Clear,330,2013-06-27 19:35:00
2:55 PM,89.8,67.1,47,29.86,10.0,NW,17.3,20.7,N/A,,Clear,320,2013-06-27 19:55:00
3:15 PM,89.8,67.5,48,29.86,10.0,NW,12.7,18.4,N/A,,Clear,320,2013-06-27 20:15:00
3:35 PM,89.6,66.6,46,29.86,10.0,NNW,15.0,19.6,N/A,,Clear,330,2013-06-27 20:35:00
3:55 PM,89.6,67.5,48,29.85,10.0,WNW,8.1,13.8,N/A,,Clear,300,2013-06-27 20:55:00
4:15 PM,88.7,67.6,50,29.84,10.0,NW,10.4,-,N/A,,Clear,310,2013-06-27 21:15:00
4:35 PM,88.2,67.8,51,29.84,10.0,WNW,9.2,-,N/A,,Clear,300,2013-06-27 21:35:00
4:55 PM,89.6,67.8,48,29.83,10.0,WNW,8.1,-,N/A,,Clear,300,2013-06-27 21:55:00
5:15 PM,89.6,66.4,46,29.83,10.0,WNW,11.5,17.3,N/A,,Clear,300,2013-06-27 22:15:00
5:35 PM,88.2,67.6,50,29.83,10.0,WNW,8.1,-,N/A,,Clear,290,2013-06-27 22:35:00
5:55 PM,88.3,68.0,51,29.83,10.0,West,9.2,-,N/A,,Clear,270,2013-06-27 22:55:00
6:15 PM,86.2,68.9,56,29.82,10.0,WSW,5.8,-,N/A,,Clear,250,2013-06-27 23:15:00
6:35 PM,86.2,68.0,54,29.80,10.0,West,8.1,-,N/A,,Clear,270,2013-06-27 23:35:00
6:55 PM,85.6,68.7,57,29.80,10.0,West,5.8,-,N/A,,Clear,260,2013-06-27 23:55:00
7:15 PM,85.6,67.8,55,29.78,10.0,West,10.4,-,N/A,,Clear,280,2013-06-28 00:15:00
7:35 PM,84.0,67.6,58,29.78,7.0,WNW,8.1,-,N/A,,Clear,300,2013-06-28 00:35:00
7:55 PM,82.4,67.5,60,29.78,10.0,WNW,6.9,-,N/A,,Clear,290,2013-06-28 00:55:00
8:15 PM,81.0,67.3,63,29.79,10.0,West,6.9,-,N/A,,Clear,280,2013-06-28 01:15:00
8:35 PM,78.8,67.3,68,29.78,10.0,West,5.8,-,N/A,,Clear,280,2013-06-28 01:35:00
8:55 PM,77.5,67.1,70,29.78,10.0,WNW,3.5,-,N/A,,Clear,290,2013-06-28 01:55:00
9:15 PM,77.0,66.6,70,29.79,10.0,West,4.6,-,N/A,,Clear,260,2013-06-28 02:15:00
9:35 PM,75.9,67.1,74,29.80,10.0,West,4.6,-,N/A,,Clear,260,2013-06-28 02:35:00
9:55 PM,75.4,66.7,74,29.80,10.0,WSW,5.8,-,N/A,,Clear,240,2013-06-28 02:55:00
10:15 PM,76.3,66.7,72,29.82,10.0,WSW,6.9,-,N/A,,Clear,250,2013-06-28 03:15:00
10:35 PM,76.1,66.6,72,29.82,10.0,WSW,5.8,-,N/A,,Clear,250,2013-06-28 03:35:00
10:55 PM,75.4,66.9,75,29.83,10.0,West,3.5,-,N/A,,Clear,270,2013-06-28 03:55:00
11:15 PM,73.9,67.5,80,29.84,10.0,West,5.8,-,N/A,,Clear,280,2013-06-28 04:15:00
11:35 PM,75.7,67.5,75,29.84,10.0,West,8.1,-,N/A,,Clear,280,2013-06-28 04:35:00
11:55 PM,76.3,67.5,74,29.84,10.0,West,8.1,-,N/A,,Clear,280,2013-06-28 04:55:00